Wind_Speed
77 75 71 71 71 64 61 55 55 52 49 43 48 49 52 47 49 49 50 46 44 42 37 41 38 37 35 37 38 35 29 30 31 33 34 35 35 37 38 37 37 38 37 37
78 75 69 66 67 61 62 65 65 55 52 55 53 55 53 53 52 53 51 52 50 44 43 40 35 42 42 42 40 39 38 37 36 37 38 39 38 38 38 38 39 39 38 37
74 71 68 67 67 66 66 67 68 62 63 61 65 59 60 60 61 60 55 54 54 50 44 44 43 45 46 45 43 43 44 42 42 41 43 45 44 43 42 41 41 42 41 41
84 80 81 79 83 81 75 76 76 72 72 70 67 59 63 64 63 60 58 57 56 54 53 50 49 49 50 52 48 47 50 50 48 46 46 47 48 49 49 47 46 47 48 49
87 87 85 83 85 85 81 81 81 79 76 69 69 66 67 64 66 63 62 63 61 60 57 54 54 55 53 52 52 52 52 52 51 48 48 49 50 53 54 54 54 53 53 55
90 87 85 86 86 84 85 85 81 81 81 75 74 68 59 67 64 64 66 67 66 65 64 62 60 58 56 56 57 58 57 55 53 50 50 52 51 53 58 60 62 64 63 61
87 86 85 85 85 84 82 87 84 82 81 72 69 69 57 64 70 70 71 72 71 71 69 67 64 62 61 61 60 61 60 60 58 57 56 55 56 56 60 65 67 70 71 71
90 89 87 87 86 86 86 85 83 81 77 74 71 64 63 64 70 75 78 76 75 73 73 72 70 67 66 65 64 65 65 65 63 60 59 61 63 63 65 68 72 75 78 77
95 94 92 91 92 91 87 85 88 85 80 76 71 68 68 71 73 77 80 79 78 78 78 78 76 73 72 70 69 67 70 70 69 67 67 68 70 70 71 73 76 79 81 82
96 93 89 90 90 91 89 88 87 85 82 79 72 70 68 73 77 75 77 80 82 81 80 81 81 80 78 78 77 75 75 76 76 78 75 75 77 77 78 79 81 84 86 87
99 97 94 94 90 91 93 92 90 89 86 80 73 68 68 73 76 75 75 78 80 83 84 84 83 82 81 82 83 83 83 85 85 84 85 84 85 85 86 86 88 89 90 91
100 99 97 95 97 98 97 94 92 92 91 90 84 75 76 78 81 80 81 81 83 85 85 85 86 86 86 86 86 88 89 90 91 91 90 91 92 91 90 91 91 93 94 96
107 106 101 100 99 98 97 96 95 96 97 92 93 80 84 89 89 89 90 90 91 92 92 91 91 93 94 95 94 93 95 97 97 96 96 96 96 98 99 101 101 101 100 100
106 106 105 105 104 103 102 102 102 103 102 97 96 90 90 91 93 95 98 98 100 98 97 98 98 99 99 101 101 100 101 103 104 104 103 102 103 103 103 102 101 101 102 101
110 109 110 106 105 105 105 106 105 105 105 105 101 100 92 97 99 101 102 102 104 106 106 107 106 107 108 108 109 109 110 110 110 109 109 109 109 108 106 107 109 110 105 105
110 111 111 113 115 117 115 113 112 109 110 109 110 107 98 104 106 107 110 111 113 114 113 113 114 115 115 117 117 117 116 116 117 116 114 113 113 116 104 109 105 103 106 109
109 110 111 115 119 120 117 111 113 114 116 120 119 109 106 106 109 112 109 106 107 111 114 116 115 115 118 117 116 113 111 112 112 110 110 110 106 104 103 105 106 104 101 103
104 105 106 105 104 104 93 96 100 105 105 107 105 105 106 102 98 100 103 103 103 99 95 88 86 86 88 90 92 93 95 96 99 104 104 103 100 100 101 102 106 105 105 104
99 100 102 102 99 93 82 84 94 97 96 96 94 95 94 90 86 86 93 95 93 88 84 83 83 86 87 88 90 91 93 95 96 98 100 105 108 107 108 111 112 114 114 114
100 102 105 103 104 95 80 91 98 105 99 97 102 100 98 96 93 88 94 94 91 93 92 91 93 93 94 97 99 99 101 104 105 106 107 111 113 116 120 121 122 121 122 123
109 108 109 109 113 106 91 96 107 110 102 102 105 107 105 101 98 92 93 95 98 100 101 100 101 101 105 106 107 109 110 113 114 116 117 119 119 120 123 126 129 131 129 130
120 118 114 117 121 114 102 109 114 116 112 113 115 117 116 113 112 110 106 107 110 112 114 115 114 117 118 114 114 117 119 118 119 120 122 125 124 124 126 128 129 133 134 133
123 124 125 123 122 119 114 115 120 125 124 122 121 122 123 121 120 121 122 123 122 123 125 127 126 127 129 128 124 122 123 122 123 125 127 129 131 130 131 131 132 132 132 133
128 129 131 133 129 130 130 129 130 132 133 133 130 127 130 133 133 131 131 130 131 133 132 130 130 131 133 132 128 122 120 118 118 119 119 118 117 119 119 117 118 118 119 120
136 138 136 137 138 141 142 142 140 139 138 139 140 140 142 141 140 141 138 137 133 131 129 127 125 122 122 119 116 114 113 110 108 108 107 105 103 102 103 104 104 104 104 108
139 142 144 145 146 149 148 149 149 146 145 146 147 146 145 142 137 134 133 131 125 124 123 116 113 110 110 109 107 105 104 102 102 102 102 101 99 98 98 98 97 96 98 98
Wind_Direction
242 245 240 244 252 250 250 251 256 259 254 267 276 279 281 283 288 286 282 277 281 282 287 292 294 297 302 311 315 318 309 303 298 296 295 292 292 290 290 288 286 287 287 286
237 238 239 241 242 242 244 251 252 255 255 268 273 281 279 286 282 284 274 275 276 275 282 277 276 286 296 298 305 309 311 314 304 298 294 290 288 286 286 286 285 284 284 285
232 233 236 237 239 246 252 252 254 255 261 268 273 276 280 282 278 278 269 270 275 272 268 270 273 280 285 292 296 299 306 306 309 298 295 293 291 287 286 286 287 286 286 287
235 240 243 243 248 251 252 255 258 257 263 267 271 274 275 277 272 271 265 268 269 265 267 268 268 274 280 286 290 294 297 302 304 303 297 293 291 290 291 290 289 290 291 291
239 242 244 248 249 252 258 259 259 259 263 267 268 268 270 270 270 265 264 266 264 266 266 266 267 271 273 279 284 286 289 295 301 302 296 291 290 291 292 291 291 290 289 291
242 242 243 248 249 250 254 257 257 260 262 262 265 264 258 264 262 263 263 263 264 265 267 270 268 269 271 276 279 282 287 288 293 294 292 289 290 290 291 292 292 291 290 289
239 241 243 246 249 252 253 254 256 257 260 260 258 261 251 255 260 260 260 262 264 266 266 267 267 269 271 273 276 278 281 283 288 290 292 290 287 287 287 288 289 289 290 290
239 241 244 246 248 250 251 254 257 257 256 256 256 256 253 248 254 258 260 262 264 265 265 265 267 269 269 270 273 276 279 280 283 283 282 286 287 286 284 284 285 285 287 288
238 240 241 243 245 248 250 252 252 253 254 254 254 253 252 251 247 253 260 264 265 264 266 267 267 267 268 270 270 271 274 275 276 276 278 281 281 280 281 282 282 283 284 286
234 236 237 239 240 243 245 246 247 249 247 245 245 247 247 249 248 250 255 259 262 263 264 266 270 273 274 275 274 274 273 275 277 278 277 278 279 280 282 280 281 281 283 286
234 236 237 239 241 242 244 245 246 249 250 248 245 244 248 250 251 251 251 253 255 258 261 263 264 267 270 273 275 276 277 278 280 281 281 281 280 281 281 281 281 283 286 287
238 239 240 242 244 245 247 249 251 253 253 253 251 249 252 254 257 257 256 255 255 255 258 261 264 266 267 268 271 274 276 278 278 280 281 282 283 282 283 283 284 284 284 284
243 242 244 244 247 249 250 253 254 256 256 258 257 255 256 255 255 256 258 257 258 258 258 259 260 262 265 267 269 270 273 275 276 278 279 280 281 282 283 284 284 284 284 284
247 249 249 249 251 252 254 255 256 257 257 258 260 258 260 259 260 258 258 260 261 261 261 262 263 263 264 266 268 269 271 273 275 276 278 278 278 279 280 281 281 283 283 283
247 248 249 249 251 252 253 254 256 257 258 259 260 260 263 263 261 262 263 264 265 266 266 265 265 267 268 269 270 272 273 273 274 274 275 276 277 277 277 278 279 281 281 281
247 249 251 254 253 252 253 254 257 258 261 261 261 260 262 263 266 267 266 266 266 265 265 266 267 268 268 269 271 273 274 275 275 275 275 274 274 277 274 274 273 276 274 277
252 253 255 255 254 253 254 257 258 259 259 260 260 262 262 263 265 266 266 267 267 268 269 270 271 271 272 272 271 272 273 274 274 276 277 277 275 275 273 274 275 270 269 271
250 252 253 254 256 256 257 256 257 258 259 260 261 262 262 261 261 262 264 266 268 268 268 268 269 270 272 274 275 275 275 275 277 278 277 275 274 276 278 278 275 272 270 269
251 252 254 256 258 258 257 263 262 262 262 266 270 268 267 266 263 263 262 261 261 259 262 264 265 271 273 275 274 276 278 278 277 275 275 275 276 276 275 277 278 277 277 275
254 255 257 259 262 262 262 263 266 266 265 268 269 270 268 267 265 266 262 258 258 258 260 263 270 274 274 277 280 279 279 279 280 278 277 277 277 276 280 281 282 279 277 278
255 258 260 262 264 266 264 264 264 267 272 269 273 275 275 275 274 272 270 272 271 272 275 275 275 277 279 276 276 278 277 276 276 276 276 276 276 276 276 278 280 279 276 275
256 256 259 259 262 265 263 264 268 270 271 269 269 270 273 275 276 277 278 278 279 280 282 281 281 282 281 279 279 279 279 276 274 272 271 270 271 272 271 272 272 273 275 276
257 261 263 264 267 267 268 267 267 268 270 273 274 275 275 277 279 280 280 281 280 280 280 280 281 281 282 281 279 278 276 272 270 269 268 268 270 270 269 269 271 272 273 273
259 261 263 265 266 267 269 268 269 269 271 273 275 276 278 278 277 277 278 278 279 279 279 279 280 280 280 280 280 278 275 273 273 272 271 272 272 272 272 273 273 273 273 274
258 260 263 264 264 265 265 267 269 271 273 274 274 274 276 276 277 277 278 278 279 279 280 279 278 277 277 277 276 275 275 275 275 274 274 274 273 273 274 274 273 274 274 274
258 260 261 263 263 264 265 267 268 270 271 272 273 273 274 274 275 275 276 277 278 279 279 277 277 277 277 277 277 277 276 276 276 275 275 276 276 275 276 276 276 275 275 275
Height
10723 10730 10734 10733 10744 10754 10757 10760 10764 10768 10773 10777 10780 10781 10783 10788 10789 10788 10787 10785 10786 10786 10789 10786 10783 10782 10782 10782 10781 10780 10779 10779 10777 10774 10771 10769 10767 10765 10764 10763 10761 10758 10755 10752
10712 10718 10718 10727 10733 10739 10745 10749 10752 10759 10763 10768 10774 10773 10773 10777 10776 10777 10777 10776 10776 10778 10780 10779 10776 10776 10775 10775 10775 10774 10772 10771 10770 10769 10767 10762 10761 10758 10756 10755 10752 10750 10748 10746
10697 10701 10710 10716 10721 10727 10732 10736 10739 10748 10753 10759 10765 10766 10765 10765 10763 10765 10765 10765 10766 10768 10769 10769 10768 10767 10766 10766 10768 10766 10764 10762 10761 10760 10758 10754 10751 10748 10747 10746 10742 10740 10737 10736
10686 10692 10697 10703 10709 10712 10717 10724 10729 10736 10743 10748 10751 10762 10753 10752 10751 10751 10752 10753 10753 10755 10758 10759 10759 10758 10757 10755 10757 10757 10754 10752 10751 10751 10749 10746 10742 10738 10735 10734 10732 10729 10726 10724
10673 10676 10681 10690 10694 10700 10706 10710 10716 10721 10729 10736 10744 10750 10737 10738 10739 10738 10739 10739 10740 10742 10745 10748 10749 10749 10748 10747 10746 10746 10746 10744 10741 10740 10738 10736 10733 10728 10723 10721 10719 10718 10717 10713
10659 10665 10671 10675 10679 10684 10691 10694 10699 10706 10713 10725 10730 10732 10737 10719 10725 10725 10724 10723 10725 10729 10732 10735 10735 10737 10737 10736 10733 10733 10734 10733 10732 10731 10728 10725 10723 10719 10712 10708 10705 10700 10700 10699
10643 10649 10653 10657 10661 10668 10675 10676 10680 10688 10697 10713 10713 10714 10732 10714 10704 10706 10706 10708 10711 10714 10718 10721 10721 10721 10723 10723 10722 10721 10720 10718 10718 10716 10715 10713 10710 10707 10701 10694 10690 10685 10682 10679
10627 10634 10640 10645 10647 10649 10654 10660 10667 10674 10683 10691 10698 10707 10709 10709 10699 10686 10683 10691 10697 10703 10703 10702 10703 10708 10709 10709 10708 10708 10707 10705 10706 10704 10701 10699 10697 10694 10690 10684 10678 10671 10665 10663
10608 10617 10622 10626 10628 10632 10643 10648 10645 10654 10665 10675 10685 10691 10689 10687 10685 10678 10675 10680 10682 10682 10683 10685 10686 10688 10691 10692 10693 10693 10692 10689 10688 10688 10687 10685 10681 10678 10674 10669 10663 10656 10649 10645
10592 10598 10606 10608 10612 10618 10625 10628 10628 10634 10644 10655 10670 10672 10673 10667 10661 10668 10672 10670 10666 10668 10669 10668 10669 10668 10669 10670 10672 10674 10674 10673 10672 10672 10671 10669 10664 10662 10659 10653 10645 10639 10633 10630
10575 10582 10590 10591 10598 10599 10601 10610 10612 10616 10626 10641 10655 10660 10656 10649 10651 10652 10655 10655 10656 10654 10651 10651 10654 10656 10656 10654 10652 10649 10648 10647 10647 10647 10647 10645 10643 10640 10636 10632 10625 10621 10618 10612
10553 10561 10571 10575 10578 10581 10587 10593 10598 10601 10609 10614 10632 10652 10641 10635 10633 10634 10633 10636 10638 10638 10642 10643 10642 10642 10640 10636 10634 10631 10630 10629 10627 10625 10624 10622 10620 10617 10613 10609 10604 10600 10598 10593
10537 10546 10554 10558 10561 10566 10571 10575 10577 10581 10586 10604 10603 10634 10619 10611 10613 10612 10610 10612 10616 10621 10627 10628 10626 10623 10621 10618 10616 10616 10612 10607 10604 10605 10604 10601 10598 10594 10590 10586 10581 10578 10574 10572
10516 10524 10533 10541 10544 10543 10549 10553 10556 10560 10568 10581 10587 10599 10596 10592 10587 10586 10589 10591 10594 10599 10600 10601 10600 10601 10602 10599 10597 10597 10594 10591 10588 10586 10582 10580 10576 10573 10570 10566 10560 10556 10552 10551
10495 10501 10505 10515 10520 10523 10528 10532 10536 10542 10546 10552 10564 10566 10571 10561 10562 10564 10567 10572 10575 10574 10574 10575 10574 10574 10574 10575 10574 10571 10567 10564 10564 10563 10560 10556 10555 10552 10549 10544 10538 10532 10527 10523
10475 10477 10483 10484 10489 10495 10506 10516 10522 10524 10520 10522 10524 10540 10543 10533 10536 10540 10544 10545 10545 10547 10546 10546 10547 10548 10549 10548 10546 10544 10542 10537 10533 10530 10529 10529 10527 10525 10518 10516 10511 10508 10501 10497
10447 10452 10455 10455 10459 10469 10483 10505 10497 10497 10494 10487 10495 10513 10513 10517 10517 10516 10511 10512 10514 10516 10517 10517 10518 10518 10517 10517 10517 10514 10512 10508 10505 10503 10497 10493 10494 10492 10489 10487 10485 10480 10476 10471
10426 10428 10428 10430 10434 10441 10479 10474 10471 10464 10461 10456 10469 10479 10485 10490 10492 10486 10482 10486 10486 10488 10489 10489 10491 10490 10487 10485 10485 10486 10483 10481 10477 10471 10468 10467 10464 10460 10455 10455 10453 10451 10449 10445
10404 10404 10404 10404 10412 10428 10456 10453 10433 10430 10437 10439 10444 10444 10447 10457 10468 10469 10460 10462 10465 10465 10466 10468 10468 10468 10465 10462 10462 10461 10455 10453 10450 10446 10441 10434 10430 10427 10423 10419 10415 10411 10410 10409
10380 10380 10376 10385 10384 10403 10443 10423 10409 10397 10416 10425 10409 10413 10417 10425 10437 10448 10438 10436 10437 10437 10438 10441 10440 10437 10434 10431 10430 10427 10422 10416 10414 10412 10410 10405 10399 10393 10387 10382 10379 10374 10371 10366
10353 10357 10360 10361 10357 10375 10418 10404 10375 10369 10392 10387 10384 10380 10381 10391 10398 10415 10410 10410 10407 10406 10404 10404 10407 10405 10401 10402 10400 10396 10391 10385 10382 10377 10373 10367 10363 10360 10355 10349 10342 10334 10331 10327
10325 10328 10342 10341 10333 10351 10384 10367 10350 10346 10353 10358 10357 10354 10358 10362 10366 10373 10386 10383 10378 10373 10370 10368 10372 10371 10367 10365 10364 10360 10355 10351 10346 10341 10335 10330 10326 10322 10318 10313 10307 10301 10298 10293
10301 10308 10307 10309 10313 10320 10341 10339 10327 10316 10318 10323 10326 10325 10328 10335 10341 10341 10346 10350 10347 10341 10341 10336 10333 10332 10328 10323 10322 10322 10314 10312 10308 10302 10298 10294 10290 10286 10281 10279 10274 10267 10262 10259
10276 10280 10281 10281 10295 10293 10294 10297 10292 10287 10287 10292 10297 10302 10299 10300 10304 10308 10307 10313 10313 10311 10305 10300 10298 10294 10291 10283 10277 10275 10273 10272 10268 10264 10260 10258 10256 10250 10246 10243 10242 10237 10232 10225
10256 10254 10261 10257 10262 10259 10255 10255 10257 10256 10260 10265 10269 10271 10266 10259 10269 10268 10274 10272 10271 10271 10269 10264 10260 10256 10250 10242 10239 10237 10235 10234 10231 10227 10223 10222 10220 10218 10214 10211 10209 10205 10201 10195
10239 10232 10225 10225 10223 10217 10223 10229 10226 10228 10227 10229 10234 10238 10233 10231 10232 10231 10231 10231 10230 10230 10227 10223 10218 10215 10212 10207 10204 10201 10199 10199 10194 10192 10189 10187 10186 10184 10182 10180 10179 10175 10170 10165